Station FTGM4 - 9014098 - Fort Gratiot, MI Image indicating link to RSS feed of recent meteorological observations for station FTGM4


Conditions at FTGM4 as of
(10:18 pm EDT on 04/20/2024)
0218 GMT on 04/21/2024:
     

Click on the graph icon in the table below to see a time series plot of the last five days of that observation.

5-day plot - Wind Direction Wind Direction (WDIR): W ( 270 deg true )
5-day plot - Wind Speed Wind Speed (WSPD): 6.0 kts
5-day plot - Wind Gust Wind Gust (GST): 8.9 kts
5-day plot - Atmospheric Pressure Atmospheric Pressure (PRES):30.07 in
5-day plot - Air Temperature Air Temperature (ATMP): 41.7 °F
5-day plot - Dew Point Dew Point (DEWP): 22.8 °F
5-day plot - Wind Chill Wind Chill (CHILL): 37.2 °F
5-day plot - Wind Speed at 10 Meters Wind Speed at 10 meters (WSPD10M): 5.8 kts
5-day plot - Wind Speed at 20 Meters Wind Speed at 20 meters (WSPD20M): 5.8 kts
5-day plot -  Wind Speed, Wind Gust and Atmospheric Pressure Combined plot of Wind Speed, Gust, and Air Pressure
NOS Water Level Observation Network Water Level
Previous observations
TIME
(EDT)
5-day plot - Wind Direction
WDIR
 
5-day plot - Wind Speed
WSPD
kts
5-day plot - Wind Gust
GST
kts
5-day plot - Wave Height
WVHT
ft
5-day plot - Dominant Wave Period
DPD
sec
5-day plot - Average Wave Period
APD
sec
5-day plot - Mean Wave Direction
MWD
 
5-day plot - Atmospheric Pressure
PRES
in
5-day plot - Pressure Tendency
PTDY
in
5-day plot - Air Temperature
ATMP
°F
5-day plot - Water Temperature
WTMP
°F
5-day plot - Dew Point
DEWP
°F
5-day plot - Salinity
SAL
psu
5-day plot - Visibility
VIS
nmi
5-day plot - Tide (above MLLW)
TIDE
ft
2024-04-20 10:12 pm W 6.0 9.9----30.07- 41.9- 23.0---
2024-04-20 10:06 pm W 5.1 9.9----30.07- 41.9- 23.0---
2024-04-20 10:00 pm W 8.0 11.1----30.07+0.01 41.9- 23.2---
2024-04-20 09:54 pm W 5.1 9.9----30.07- 41.9- 23.5---
2024-04-20 09:48 pm W 6.0 8.9----30.07- 41.9- 23.7---
2024-04-20 09:42 pm W 5.1 8.0----30.06- 41.9- 23.5---
2024-04-20 09:36 pm W 5.1 8.0----30.06- 42.1- 23.7---
2024-04-20 09:30 pm W 6.0 9.9----30.06- 42.1- 23.5---
2024-04-20 09:24 pmWNW 7.0 11.1----30.06- 42.1- 23.2---
2024-04-20 09:18 pmWNW 8.0 9.9----30.06- 42.1- 23.2---
2024-04-20 09:12 pm W 4.1 8.0----30.06- 42.1- 23.4---
2024-04-20 09:06 pm W 5.1 12.0----30.06- 42.3- 22.8---
2024-04-20 09:00 pmWNW 8.9 11.1----30.06+0.00 42.3- 22.6---
2024-04-20 08:54 pmWNW 8.0 12.0----30.06- 42.4- 22.5---
2024-04-20 08:48 pmWNW 8.9 12.0----30.06- 42.4- 22.5---
2024-04-20 08:42 pmWNW 8.0 13.0----30.06- 42.6- 22.5---
2024-04-20 08:36 pmWNW 9.9 15.0----30.06- 42.8- 22.6---
2024-04-20 08:30 pm W 8.0 13.0----30.06- 42.8- 22.8---
2024-04-20 08:24 pm W 7.0 9.9----30.06- 43.0- 22.8---
2024-04-20 08:18 pm W 6.0 11.1------ 43.0- 22.5---
2024-04-20 08:12 pm W 8.0 11.1------ 43.0- 22.5---
2024-04-20 08:06 pmWNW 6.0 12.0------ 43.2- 22.5---
2024-04-20 08:00 pm NW 5.1 11.1----30.05+0.00 43.2-----
2024-04-20 07:54 pm W 5.1 14.0----30.05- 43.3-----
2024-04-20 07:48 pm W 8.9 14.0----30.05-------
2024-04-20 07:42 pm W 8.0 12.0----30.05-------
2024-04-20 07:36 pmWNW 5.1 11.1----30.05-------
2024-04-20 07:30 pmWNW 6.0 9.9----30.05- 43.5- 21.6---
2024-04-20 07:24 pmWNW 5.1 9.9----30.05- 43.7- 22.1---
2024-04-20 07:18 pmWNW 6.0 8.9----30.06-------
2024-04-20 07:12 pmWNW 8.9 11.1----30.06-------
2024-04-20 07:06 pmWNW 5.1 11.1----30.06-------
2024-04-20 07:00 pmWNW 5.1 12.0----30.06+0.01 43.9-----
2024-04-20 06:54 pmWNW 7.0 12.0----30.06- 43.9-----
2024-04-20 06:48 pmWNW 8.9 15.9----30.06- 43.9- 21.4---
2024-04-20 06:42 pmWNW 6.0 13.0----30.06- 44.1- 21.2---
2024-04-20 06:36 pmWNW 9.9 13.0----30.06- 43.9- 20.8---
2024-04-20 06:30 pmWNW 11.1 15.0----30.06- 43.9- 20.8---
2024-04-20 06:24 pmWNW 11.1 18.1----30.06- 44.1- 21.4---
2024-04-20 06:18 pmWNW 6.0 14.0----30.06- 44.1- 21.6---
2024-04-20 06:12 pm W 11.1 15.0----30.06- 43.9- 21.0---
2024-04-20 06:06 pm W 8.9 14.0----30.06- 44.1- 21.2---
2024-04-20 06:00 pm-------30.06+0.00 44.1- 20.8---
2024-04-20 05:54 pm-------30.06- 44.1- 20.7---
2024-04-20 05:48 pm W 6.0 14.0----30.05- 44.2- 20.8---
2024-04-20 05:42 pm W 11.1 15.0----30.05- 44.2- 20.7---
2024-04-20 05:36 pm W 8.0 13.0----30.05- 44.2- 20.7---
2024-04-20 05:30 pmWNW 8.0 9.9----30.05- 44.4- 20.8---
2024-04-20 05:24 pmWNW 8.9 13.0----30.05- 44.1- 20.3---
2024-04-20 05:18 pmWNW 7.0 9.9----30.05- 44.1- 20.7---
2024-04-20 05:12 pmWNW 8.0 13.0----30.05- 44.2- 21.7---
2024-04-20 05:06 pm W 8.0 13.0----30.05- 43.9- 21.6---
2024-04-20 05:00 pm NW 8.0 14.0----30.05+0.00 43.7- 20.7---
2024-04-20 04:54 pmWNW 9.9 15.0----30.06- 43.7- 20.5---
2024-04-20 04:48 pmWNW 8.0 15.0----30.06-------
2024-04-20 04:42 pm W 8.0 17.1----30.05-------
2024-04-20 04:36 pm NW 13.0 19.0----30.05-------
2024-04-20 04:30 pm W 11.1 15.9----30.05- 44.2- 21.2---
2024-04-20 04:24 pm W 8.0 13.0----30.05- 44.2- 21.0---
2024-04-20 04:18 pm W 7.0 15.9------ 44.8- 21.2---
2024-04-20 04:12 pmWNW 13.0 19.0------ 44.4- 21.2---
2024-04-20 04:06 pm W 8.0 14.0------ 44.2- 21.6---
2024-04-20 04:00 pm-------30.05+0.00 44.2- 21.6---
2024-04-20 03:54 pm-------30.06- 44.8- 22.6---
2024-04-20 03:48 pm W 8.9 15.9----30.05- 43.5- 21.6---
2024-04-20 03:42 pm W 12.0 15.9----30.05- 43.3- 21.4---
2024-04-20 03:36 pmWNW 9.9 17.1----30.05- 43.5- 20.5---
2024-04-20 03:30 pm W 7.0 13.0----30.05- 44.1- 20.7---
2024-04-20 03:24 pmWNW 9.9 15.0----30.05- 43.9- 20.5---
2024-04-20 03:18 pmWNW 11.1 15.9----30.05- 43.5- 19.2---
2024-04-20 03:12 pm W 11.1 18.1----30.05- 44.1- 19.2---
2024-04-20 03:06 pmWNW 7.0 12.0----30.05- 45.1- 19.8---
2024-04-20 03:00 pmWNW 8.0 13.0----30.05+0.00------
2024-04-20 02:54 pmWNW 11.1 17.1----30.05-------
2024-04-20 02:48 pmWNW 11.1 14.0----30.05- 44.2- 20.5---
2024-04-20 02:42 pm W 8.0 18.1----30.06- 44.4- 21.0---
2024-04-20 02:36 pm W 15.0 19.0----30.06- 43.7- 19.9---
2024-04-20 02:30 pm W 9.9 20.0------ 43.9- 19.9---
2024-04-20 02:24 pm W 8.0 17.1------ 45.1- 21.6---
2024-04-20 02:18 pmWNW 9.9 19.0----30.05- 43.9- 20.8---
2024-04-20 02:12 pmWNW 13.0 19.0----30.06- 43.2- 20.1---
2024-04-20 02:06 pmWNW 12.0 19.0----30.06- 43.2- 20.3---
2024-04-20 02:00 pmWNW 12.0 17.1----30.06+0.02 43.2- 19.6---
2024-04-20 01:54 pmWNW 11.1 15.0----30.06- 43.3- 19.6---
2024-04-20 01:48 pm W 7.0 11.1----30.05- 43.7- 20.7---
2024-04-20 01:42 pmWNW 6.0 14.0----30.06- 43.7- 20.5---
2024-04-20 01:36 pm W 7.0 12.0----30.06- 43.0- 21.4---
2024-04-20 01:30 pmWNW 8.0 19.0----30.06- 42.6- 21.0---
2024-04-20 01:24 pm W 9.9 15.9----30.05- 42.3- 20.3---
2024-04-20 01:18 pmWNW 8.9 15.0----30.05- 42.6- 20.3---
2024-04-20 01:12 pm W 12.0 17.1----30.05- 42.6- 20.5---
2024-04-20 01:06 pm W 12.0 18.1----30.05- 42.6- 21.0---
2024-04-20 01:00 pm W 11.1 19.0----30.05+0.03 42.6- 20.1---
2024-04-20 12:54 pmWNW 11.1 15.0----30.05- 42.8- 19.8---
2024-04-20 12:48 pmWNW 11.1 19.0----30.05- 43.0- 19.9---
2024-04-20 12:42 pm NW 12.0 15.9----30.05- 43.5- 21.0---
2024-04-20 12:36 pm NW 7.0 15.9----30.05- 42.8- 20.1---
2024-04-20 12:30 pm NW 13.0 18.1----30.05- 42.3- 19.8---
2024-04-20 12:24 pm NW 15.0 20.0----30.05- 42.1- 19.6---
2024-04-20 12:18 pm W 15.0 21.0----30.05- 42.1- 20.1---
2024-04-20 12:12 pm NW 14.0 24.1----30.05- 43.2- 20.8---
2024-04-20 12:06 pm NW 12.0 20.0----30.05- 43.0- 21.4---
2024-04-20 12:00 pmWNW 11.1 18.1----30.05+0.04 42.8- 22.5---
2024-04-20 11:54 am W 15.0 20.0----30.05- 42.4- 22.8---
2024-04-20 11:48 am W 14.0 19.0----30.05- 41.5- 21.6---
2024-04-20 11:42 amWNW 12.0 19.0----30.05- 41.9- 21.4---
2024-04-20 11:36 amWNW 15.0 21.0----30.04- 41.4- 20.5---
2024-04-20 11:30 amWNW 13.0 25.1----30.04- 41.2- 19.9---
2024-04-20 11:24 amWNW 11.1 18.1----30.04- 41.4- 19.9---
2024-04-20 11:18 am W 14.0 21.0----30.04- 41.4- 20.5---
2024-04-20 11:12 am W 9.9 19.0----30.04- 41.4- 20.1---
2024-04-20 11:06 amWNW 14.0 22.9----30.04- 40.8- 19.6---
2024-04-20 11:00 amWNW 12.0 17.1----30.04+0.05 41.0- 19.9---
2024-04-20 10:54 am NW 8.9 17.1----30.04- 40.5- 19.0---
2024-04-20 10:48 amWNW 14.0 21.0----30.04- 40.3- 18.5---
2024-04-20 10:42 am W 13.0 22.9----30.03- 40.1- 18.1---
2024-04-20 10:36 amWNW 8.9 19.0----30.03- 40.8- 18.9---
2024-04-20 10:30 amWNW 9.9 15.9----30.03- 40.5- 19.0---
2024-04-20 10:24 amWNW 8.9 14.0----30.02- 40.5- 18.3---
2024-04-20 10:18 am W 12.0 18.1----30.02- 40.1- 17.1---
2024-04-20 10:12 amWNW 14.0 18.1----30.02- 40.3- 16.5---
2024-04-20 10:06 amWNW 12.0 15.9----30.02- 40.5- 17.1---
2024-04-20 10:00 amWNW 14.0 19.0----30.02+0.04 39.9- 16.3---
2024-04-20 09:54 amWNW 14.0 21.0----30.02- 39.7- 16.0---
2024-04-20 09:48 amWNW 14.0 20.0----30.02-------
2024-04-20 09:42 amWNW 12.0 19.0----30.02-------
2024-04-20 09:36 am W 8.0 15.0----30.02-------
2024-04-20 09:30 amWNW 14.0 21.0----30.01- 39.9- 16.2---
2024-04-20 09:24 am W 12.0 17.1----30.01- 40.3- 16.9---
2024-04-20 09:18 amWNW 13.0 18.1----30.01- 40.1- 16.5---
2024-04-20 09:12 am W 11.1 18.1----30.01- 40.5- 17.6---
2024-04-20 09:06 amWNW 14.0 22.9----30.01- 40.1- 16.9---
2024-04-20 09:00 am W 14.0 21.0----30.01+0.05 40.5- 17.2---
2024-04-20 08:54 am W 9.9 20.0----30.01- 40.1- 16.7---
2024-04-20 08:48 am W 12.0 19.0----30.00- 39.6- 16.9---
2024-04-20 08:42 am W 11.1 18.1----30.00- 39.7- 17.4---
2024-04-20 08:36 am W 7.0 14.0----30.00- 39.6- 17.8---
2024-04-20 08:30 amWNW 7.0 22.0----30.00- 39.4- 17.4---
2024-04-20 08:24 am W 13.0 20.0----29.99- 39.2- 17.6---
2024-04-20 08:18 amWNW 6.0 12.0----29.99- 39.4- 19.0---
2024-04-20 08:12 amWNW 8.0 15.0----29.99- 39.2- 19.0---
2024-04-20 08:06 am W 7.0 9.9----29.99- 39.2- 19.6---
2024-04-20 08:00 amWNW 8.9 13.0----29.99+0.04 39.2- 19.8---
2024-04-20 07:54 amWNW 6.0 14.0----29.99- 39.2- 19.8---
2024-04-20 07:48 amWNW 5.1 8.0----29.98- 39.2- 19.4---
2024-04-20 07:42 amWNW 7.0 14.0----29.98- 39.2- 19.6---
2024-04-20 07:36 amWNW 8.0 14.0----29.98- 39.2- 19.4---
2024-04-20 07:30 amWNW 8.9 14.0----29.98- 39.0- 19.4---
2024-04-20 07:24 am NW 8.0 15.9----29.98- 39.2- 19.4---
2024-04-20 07:18 am NW 12.0 17.1----29.98- 39.4- 19.4---
2024-04-20 07:12 amWNW 9.9 14.0----29.98- 39.4- 19.4---
2024-04-20 07:06 amWNW 8.9 15.0----29.98- 39.6- 19.8---
2024-04-20 07:00 amWNW 14.0 24.1----29.98+0.04 39.6- 20.7---
2024-04-20 06:54 amWNW 9.9 15.9----29.97- 39.6- 21.0---
2024-04-20 06:48 am NW 8.9 14.0----29.97- 39.6- 21.6---
2024-04-20 06:42 amWNW 8.9 15.9----29.97- 39.6- 21.7---
2024-04-20 06:36 amWNW 7.0 14.0----29.97- 39.7- 21.4---
2024-04-20 06:30 amWNW 8.9 14.0----29.97-------
2024-04-20 06:24 am NW 8.0 17.1----29.96-------
2024-04-20 06:18 am NW 13.0 18.1----29.96- 40.1- 22.8---
2024-04-20 06:12 am NW 8.0 15.0----29.96- 40.3- 25.2---
2024-04-20 06:06 am NW 8.9 15.0----29.96- 40.5- 27.3---
2024-04-20 06:00 amWNW 11.1 15.0----29.96+0.04------
2024-04-20 05:54 amWNW 7.0 12.0----29.96-------
2024-04-20 05:48 amWNW 7.0 12.0----29.96- 40.6- 30.0---
2024-04-20 05:42 am NW 6.0 11.1----29.96- 40.6- 30.2---
2024-04-20 05:36 am NW 6.0 11.1----29.96- 40.6- 30.0---
2024-04-20 05:30 am NW 5.1 8.0----29.96- 40.8- 30.4---
2024-04-20 05:24 am NW 6.0 11.1----29.96- 40.8- 30.2---
2024-04-20 05:18 am NW 8.0 14.0----29.96- 40.8- 30.0---
2024-04-20 05:12 amNNW 7.0 11.1----29.96- 41.0- 29.8---
2024-04-20 05:06 am NW 8.0 11.1----29.96- 41.2- 29.7---
2024-04-20 05:00 amNNW 8.0 12.0----29.95+0.02 41.2- 29.3---
2024-04-20 04:54 am NW 11.1 13.0----29.95- 41.7- 28.8---
2024-04-20 04:48 amNNW 7.0 19.0----29.95- 42.1- 27.7---
2024-04-20 04:42 am NW 9.9 19.0----29.94- 43.2- 26.6---
2024-04-20 04:36 am W 8.0 13.0----29.94- 43.5- 26.6---
2024-04-20 04:30 am W 8.0 12.0----29.94-------
2024-04-20 04:24 am W 8.0 12.0----29.94-------
2024-04-20 04:18 am W 9.9 14.0----29.93- 43.9- 26.2---
2024-04-20 04:12 amWSW 8.9 12.0----29.93- 44.1- 26.1---
2024-04-20 04:06 am W 9.9 15.0----29.93- 44.2- 26.1---
2024-04-20 04:00 am-------29.93-0.01------
2024-04-20 03:54 am-------29.93-------
2024-04-20 03:48 amWSW 8.0 13.0----29.93- 44.2- 25.9---
2024-04-20 03:42 amWSW 8.0 12.0----29.93- 44.4- 25.9---
2024-04-20 03:36 amWSW 8.0 12.0----29.92- 44.6- 25.7---
2024-04-20 03:30 amWSW 7.0 12.0----29.92- 44.6- 25.9---
2024-04-20 03:24 amWSW 7.0 9.9----29.92- 44.8- 25.7---
2024-04-20 03:18 amWSW 6.0 13.0----29.92- 45.0- 25.7---
2024-04-20 03:12 amWSW 8.9 11.1----29.93- 44.8- 25.5---
2024-04-20 03:06 amWSW 7.0 11.1----29.92- 45.0- 25.2---
2024-04-20 03:00 amWSW 8.0 12.0----29.92-0.03 45.0- 25.3---
2024-04-20 02:54 amWSW 8.9 12.0----29.92- 45.0- 25.3---
2024-04-20 02:48 amWSW 7.0 11.1----29.92- 45.0- 25.5---
2024-04-20 02:42 am SW 6.0 11.1----29.92- 45.0- 25.3---
2024-04-20 02:36 am SW 8.0 11.1----29.92- 44.8- 25.5---
2024-04-20 02:30 am SW 7.0 11.1----29.93- 44.6- 25.3---
2024-04-20 02:24 am SW 8.0 12.0----29.93- 44.8- 25.5---
2024-04-20 02:18 amWSW 6.0 8.9----29.93- 44.8- 25.3---
2024-04-20 02:12 amWSW 7.0 11.1----29.93- 44.8- 25.3---
2024-04-20 02:06 amWSW 8.0 13.0----29.93- 45.1- 25.3---
2024-04-20 02:00 amWSW 8.0 12.0----29.93-0.04 45.3- 25.3---
2024-04-20 01:54 am SW 6.0 12.0----29.93- 45.3- 25.3---
2024-04-20 01:48 am SW 8.0 9.9----29.94- 45.5- 25.0---
2024-04-20 01:42 am SW 7.0 12.0----29.94- 45.3- 25.0---
2024-04-20 01:36 am SW 7.0 12.0----29.94- 45.5- 24.4---
2024-04-20 01:30 am SW 7.0 9.9----29.94- 45.3- 24.6---
2024-04-20 01:24 am SW 7.0 9.9----29.94- 45.3- 25.2---
2024-04-20 01:18 am SW 8.0 9.9----29.94- 45.1- 25.5---
2024-04-20 01:12 am SW 8.0 11.1----29.94- 45.0- 25.9---
2024-04-20 01:06 amSSW 8.0 9.9----29.94- 44.8- 25.9---
2024-04-20 01:00 am SW 6.0 8.9----29.94-0.04 44.8- 26.2---
2024-04-20 12:54 amSSW 8.0 8.9----29.94- 44.8- 26.2---
2024-04-20 12:48 am SW 7.0 9.9----29.94- 44.8- 26.4---
2024-04-20 12:42 am SW 8.9 11.1----29.95- 45.0- 26.4---
2024-04-20 12:36 amSSW 8.9 11.1----29.95- 45.0- 26.2---
2024-04-20 12:30 amSSW 8.9 11.1----29.95- 45.0- 25.9---
2024-04-20 12:24 amSSW 8.0 9.9----29.95- 44.8- 25.2---
2024-04-20 12:18 amSSW 8.0 8.9----29.95- 45.0- 24.6---
2024-04-20 12:12 amSSW 7.0 8.9----29.95- 45.0- 24.3---
2024-04-20 12:06 amSSW 7.0 8.0----29.95- 45.0- 23.9---
2024-04-20 12:00 amSSW 7.0 8.9----29.95-0.02 45.1- 23.9---
2024-04-19 11:54 pmSSW 6.0 8.0----29.96- 45.1- 24.1---
2024-04-19 11:48 pmSSW 6.0 8.0----29.96- 45.1- 24.1---
2024-04-19 11:42 pmSSW 6.0 8.0----29.96- 45.0- 24.3---
2024-04-19 11:36 pmSSW 6.0 7.0----29.96- 45.3- 24.3---
2024-04-19 11:30 pm SW 5.1 7.0----29.96- 45.3- 24.3---
2024-04-19 11:24 pm SW 5.1 7.0----29.96- 45.5- 24.4---
2024-04-19 11:18 pmSSW 5.1 7.0----29.96- 45.5- 24.4---
2024-04-19 11:12 pmSSW 5.1 7.0----29.97- 45.5- 24.6---
2024-04-19 11:06 pmSSW 5.1 6.0----29.97- 45.5- 24.6---
2024-04-19 11:00 pmSSW 5.1 5.1----29.97+0.03 45.5- 24.1---
2024-04-19 10:54 pm SW 4.1 5.1----29.97- 45.9- 24.1---